SARAL

Last updated on Thu Jul 03 2025 00:02:30 GMT+0000 (Coordinated Universal Time)

1 39086U 13009A 25183.58735032 .00000059 00000+0 37828-4 0 9996 2 39086 98.5537 9.6268 0001027 206.0789 154.0343 14.32688215645542
UTC large
Height (km)
Speed (km/s)
/
Latitude / Longitude
Inclination (degrees)
Orbital Period (minutes)
Azimuth
Elevation
Range (km)
Doppler Factor

Next 0 passes for location: London (51.5072 / 0.1276)

Sorry there are no passes over London.